User: anonymous   Login
Location: Unspecified
(0.0000°N, 0.0000°E)
Time: 07:43:08
(UTC+00:00)
Language:

Vanguard 2 - Orbit

View from above orbital plane
View from above orbital plane
View from above satellite
View from above satellite

Ground track
Ground track

The orbit data is extracted from the following two-line orbital elements,

1    11U 59001A   18147.88591465 -.00000049 +00000-0 -34927-4 0  9998
2    11 032.8755 356.7730 1468898 329.1543 023.0230 11.85539896185757
Epoch (UTC): 27 May 2018 21:15:43
Eccentricity: 0.1468898
inclination: 32.8755°
perigee height: 553 km
apogee height: 2939 km
right ascension of ascending node: 356.7730°
argument of perigee: 329.1543°
revolutions per day: 11.85539896
mean anomaly at epoch: 23.0230°
orbit number at epoch: 18575

The dashed part of the orbit path shows where the satellite is in the earth's shadow,  

DLR